Waarnemingen

Advertentie
Mijn weer
Bierset/Liege, België (6478): temperatuur & dauwpunt: 11.08.2019 15:00:00 - 17.08.2019 15:00:00 (CEST)Bierset/Liege, België (6478): windsnelheid & windstoten: 11.08.2019 15:00:00 - 17.08.2019 15:00:00 (CEST)Bierset/Liege, België (6478): windrichting: 11.08.2019 15:00:00 - 17.08.2019 15:00:00 (CEST)Bierset/Liege, België (6478): luchtdruk: 11.08.2019 15:00:00 - 17.08.2019 15:00:00 (CEST)Bierset/Liege, België (6478): zicht: 11.08.2019 15:00:00 - 17.08.2019 15:00:00 (CEST)
Datum & Tijd tt [°C] td [°C] ff [km/u] ff [kn] fx [km/u] fx [kn] dd ppp [hPa] vv [km]
17.08.2019 15:00:00 18,1 16,7 22 12 40 21 Z 1009,1 4,5
17.08.2019 14:00:00 18,4 15,3 24 13 - - ZZW 1009,6 10
17.08.2019 13:00:00 17,9 15,2 22 12 36 19 ZZW 1009,4 6
17.08.2019 12:00:00 17,9 15,1 22 12 36 19 ZZW 1009,6 10
17.08.2019 11:00:00 16,8 15,1 28 15 - - ZZW 1009,6 7
17.08.2019 10:00:00 17,5 14,9 29 16 40 21 ZZW 1009,5 10
17.08.2019 09:00:00 18,6 12,2 26 14 43 23 ZZW 1009,0 10
17.08.2019 08:00:00 18,5 12,4 22 12 - - ZW 1008,8 10
17.08.2019 07:00:00 18,1 12,3 21 11 29 16 ZZW 1008,8 10
17.08.2019 06:00:00 18,2 12,2 22 12 32 18 ZZW 1008,7 10
17.08.2019 05:00:00 18,5 11,9 21 11 - - ZZW 1008,9 10
17.08.2019 04:00:00 18,6 12,0 18 10 29 16 ZZW 1009,4 10
17.08.2019 03:00:00 18,8 11,6 16 9 32 18 Z 1009,9 10
17.08.2019 02:00:00 18,3 12,1 16 9 - - Z 1010,2 10
17.08.2019 01:00:00 18,0 13,0 11 6 29 16 ZZO 1011,0 10
17.08.2019 00:00:00 18,4 12,5 15 8 29 16 Z 1012,0 10
16.08.2019 23:00:00 18,5 12,4 13 7 - - ZZO 1012,4 10
16.08.2019 22:00:00 19,2 11,6 11 6 25 14 Z 1013,0 10
16.08.2019 21:00:00 19,7 11,8 11 6 25 14 Z 1012,8 10
16.08.2019 20:00:00 20,3 11,1 16 9 - - ZZW 1013,1 10
16.08.2019 19:00:00 20,7 10,8 16 9 32 18 ZZW 1013,6 10
16.08.2019 18:00:00 20,8 10,6 21 11 32 18 Z 1013,8 10
16.08.2019 17:00:00 20,7 11,1 21 11 - - ZZW 1014,7 10
16.08.2019 16:00:00 20,6 11,0 18 10 32 18 ZZW 1015,6 10
16.08.2019 15:00:00 20,6 11,2 21 11 32 18 ZW 1016,4 10
16.08.2019 14:00:00 19,3 11,4 18 10 - - ZW 1016,9 10
16.08.2019 13:00:00 19,0 11,4 22 12 32 18 WZW 1017,4 10
16.08.2019 12:00:00 17,4 11,9 18 10 32 18 ZW 1018,1 10
16.08.2019 11:00:00 16,5 12,7 21 11 - - ZZW 1018,2 10
16.08.2019 10:00:00 15,9 12,8 22 12 36 19 ZZW 1018,2 10
16.08.2019 09:00:00 14,8 12,7 18 10 25 14 ZZW 1018,4 10
16.08.2019 08:00:00 14,1 12,9 15 8 - - ZZW 1018,5 10
16.08.2019 07:00:00 13,8 12,9 11 6 18 10 ZZW 1018,6 8
16.08.2019 06:00:00 13,4 12,5 13 7 22 12 ZZW 1018,3 8
16.08.2019 05:00:00 13,2 11,8 15 8 - - ZZW 1018,4 10
16.08.2019 04:00:00 13,1 12,2 15 8 22 12 ZW 1018,3 10
16.08.2019 03:00:00 14,2 12,8 15 8 18 10 ZZW 1018,0 10
16.08.2019 02:00:00 13,6 12,7 11 6 - - WZW 1018,0 10
16.08.2019 01:00:00 15,2 13,3 16 9 29 16 WZW 1017,8 10
16.08.2019 00:00:00 16,2 13,5 18 10 29 16 WZW 1017,6 10
15.08.2019 23:00:00 16,2 13,8 9 5 - - WZW 1017,2 10
15.08.2019 22:00:00 16,2 13,8 11 6 22 12 WZW 1016,7 10
15.08.2019 21:00:00 16,4 13,9 15 8 25 14 W 1015,7 10
15.08.2019 20:00:00 16,7 14,2 15 8 - - W 1014,8 10
15.08.2019 19:00:00 16,0 14,1 22 12 36 19 W 1014,3 8
15.08.2019 18:00:00 18,7 15,0 18 10 54 29 W 1013,4 10
15.08.2019 17:00:00 15,8 14,1 31 17 - - WZW 1013,4 3,0
15.08.2019 16:00:00 18,4 14,6 28 15 43 23 W 1012,6 10
15.08.2019 15:00:00 19,8 13,7 24 13 43 23 WZW 1012,0 10
15.08.2019 14:00:00 19,7 14,3 31 17 - - WZW 1011,6 10
15.08.2019 13:00:00 19,1 15,3 26 14 47 25 W 1011,3 10
15.08.2019 12:00:00 17,6 16,2 24 13 43 23 WZW 1011,2 10
15.08.2019 11:00:00 17,1 15,0 28 15 - - WZW 1011,0 4,0
15.08.2019 10:00:00 17,2 15,1 24 13 40 21 ZW 1010,7 10
15.08.2019 09:00:00 16,7 15,2 26 14 36 19 ZW 1010,6 10
15.08.2019 08:00:00 15,7 14,8 22 12 - - ZZW 1010,5 10
15.08.2019 07:00:00 15,6 14,7 21 11 29 16 ZW 1010,5 10
15.08.2019 06:00:00 15,2 14,5 21 11 32 18 ZZW 1010,4 6
15.08.2019 05:00:00 15,3 14,5 22 12 - - ZZW 1010,8 6
15.08.2019 04:00:00 15,1 14,4 28 15 40 21 ZZW 1011,4 5
15.08.2019 03:00:00 16,1 14,2 18 10 25 14 ZZW 1011,7 10
15.08.2019 02:00:00 16,6 13,6 16 9 - - Z 1012,1 10
15.08.2019 01:00:00 16,2 14,3 13 7 29 16 ZZO 1012,5 10
15.08.2019 00:00:00 17,1 13,8 15 8 25 14 ZZW 1013,1 10
14.08.2019 23:00:00 17,3 13,7 13 7 - - Z 1013,2 10
14.08.2019 22:00:00 17,8 13,0 9 5 25 14 ZO 1013,5 10
14.08.2019 21:00:00 19,3 10,8 11 6 29 16 ZZO 1013,8 10
14.08.2019 20:00:00 19,7 10,2 15 8 - - ZZW 1014,2 10
14.08.2019 19:00:00 19,7 11,9 9 5 22 12 Z 1014,7 10
14.08.2019 18:00:00 20,2 9,5 15 8 29 16 ZZW 1015,4 10
14.08.2019 17:00:00 20,9 10,5 21 11 - - ZW 1016,1 10
14.08.2019 16:00:00 19,9 9,5 24 13 32 18 ZW 1016,7 10
14.08.2019 15:00:00 20,2 9,8 15 8 29 16 ZZW 1017,1 10
14.08.2019 14:00:00 19,8 9,9 11 6 - - ZZW 1017,7 10
14.08.2019 13:00:00 18,7 11,0 16 9 29 16 ZW 1018,4 10
14.08.2019 12:00:00 16,5 10,2 16 9 25 14 ZZW 1019,1 10
14.08.2019 11:00:00 16,0 11,5 15 8 - - ZZW 1019,5 10
14.08.2019 10:00:00 14,4 11,9 15 8 25 14 ZZW 1019,7 10
14.08.2019 09:00:00 11,4 10,5 13 7 22 12 Z 1020,0 6
14.08.2019 08:00:00 10,4 10,0 11 6 - - Z 1020,0 1,6
14.08.2019 07:00:00 10,6 9,8 13 7 25 14 Z 1019,7 10
14.08.2019 06:00:00 10,8 9,9 11 6 22 12 ZZO 1019,5 10
14.08.2019 05:00:00 11,2 10,2 9 5 - - Z 1019,7 10
14.08.2019 04:00:00 11,6 10,6 15 8 29 16 ZW 1019,7 10
14.08.2019 03:00:00 12,0 10,8 16 9 22 12 ZW 1019,6 10
14.08.2019 02:00:00 12,0 10,0 13 7 - - ZZW - 10
14.08.2019 01:00:00 13,0 10,0 9 5 - - Z - 10
14.08.2019 00:00:00 13,5 9,7 9 5 25 14 Z 1019,7 10
13.08.2019 23:00:00 12,7 8,7 9 5 - - NO 1020,0 10
13.08.2019 22:00:00 13,8 10,0 9 5 18 10 WZW 1019,7 10
13.08.2019 21:00:00 14,7 10,0 11 6 25 14 ZW 1019,0 10
13.08.2019 20:00:00 15,6 9,8 18 10 - - WZW 1018,6 10
13.08.2019 19:00:00 15,9 9,3 21 11 32 18 ZW 1018,7 10
13.08.2019 18:00:00 16,1 10,5 21 11 32 18 WZW 1019,0 10
13.08.2019 17:00:00 14,8 10,6 22 12 - - WZW 1019,2 10
13.08.2019 16:00:00 15,2 11,8 22 12 47 25 W 1019,2 7
13.08.2019 15:00:00 17,9 7,3 24 13 40 21 WZW 1018,6 10
13.08.2019 14:00:00 18,8 6,6 24 13 - - ZW 1018,5 10
13.08.2019 13:00:00 18,1 8,1 24 13 36 19 WZW 1018,9 10
13.08.2019 12:00:00 16,1 9,4 18 10 32 18 WZW 1019,4 10
13.08.2019 11:00:00 16,4 10,3 21 11 - - ZW 1019,3 10
13.08.2019 10:00:00 15,3 11,5 18 10 25 14 ZW 1019,2 10
13.08.2019 09:00:00 13,5 11,1 18 10 25 14 ZW 1019,1 10
13.08.2019 08:00:00 11,8 10,3 16 9 - - ZW 1018,9 10
13.08.2019 07:00:00 11,0 10,0 15 8 - - ZW - 10
13.08.2019 06:00:00 12,0 11,0 18 10 - - WZW - 10
13.08.2019 05:00:00 13,0 11,0 21 11 - - WZW - 10
13.08.2019 04:00:00 12,0 12,0 18 10 - - ZW - 10
13.08.2019 03:00:00 13,0 11,0 16 9 - - ZW - 10
13.08.2019 02:00:00 13,0 12,0 16 9 - - ZW - 10
13.08.2019 01:00:00 13,0 11,0 16 9 - - ZW - 10
13.08.2019 00:00:00 14,0 11,0 18 10 - - ZW - 10
12.08.2019 23:00:00 14,0 12,0 15 8 - - Z - 10
12.08.2019 22:00:00 14,2 12,7 15 8 22 12 Z 1016,4 10
12.08.2019 21:00:00 14,6 12,6 13 7 25 14 Z 1015,8 10
12.08.2019 20:00:00 14,7 12,4 13 7 - - ZZO 1015,4 10
12.08.2019 19:00:00 14,5 12,8 13 7 29 16 ZZO 1015,1 10
12.08.2019 18:00:00 16,3 11,1 13 7 32 18 WNW 1015,3 10
12.08.2019 17:00:00 16,9 12,0 15 8 - - W 1014,7 10
12.08.2019 16:00:00 19,5 12,1 22 12 36 19 ZW 1014,4 10
12.08.2019 15:00:00 19,2 12,5 13 7 22 12 Z 1014,4 10
12.08.2019 14:00:00 16,8 12,8 11 6 - - Z 1015,2 9
12.08.2019 13:00:00 20,4 11,9 13 7 22 12 WZW 1015,2 10
12.08.2019 12:00:00 19,7 12,1 11 6 22 12 WZW 1015,9 10
12.08.2019 11:00:00 17,8 11,6 11 6 - - WZW 1016,1 15
12.08.2019 10:00:00 16,2 12,6 16 9 25 14 ZW 1016,5 10
12.08.2019 09:00:00 14,9 12,0 15 8 29 16 Z 1016,4 10
12.08.2019 08:00:00 13,7 11,3 13 7 - - ZZW 1016,3 10
12.08.2019 07:00:00 13,3 11,0 16 9 36 19 Z 1016,4 10
12.08.2019 06:00:00 13,6 10,7 21 11 25 14 ZZW 1015,9 10
12.08.2019 05:00:00 13,7 10,5 16 9 - - ZZW 1016,0 10
12.08.2019 04:00:00 14,2 10,5 18 10 36 19 Z 1015,8 10
12.08.2019 03:00:00 14,6 10,5 18 10 29 16 ZZW 1015,9 10
12.08.2019 02:00:00 14,9 10,2 18 10 - - ZZW 1016,3 10
12.08.2019 01:00:00 15,2 9,9 16 9 36 19 Z 1016,3 10
12.08.2019 00:00:00 15,8 9,6 13 7 25 14 ZZW 1016,4 10
11.08.2019 23:00:00 16,4 9,5 15 8 - - ZW 1016,1 10
11.08.2019 22:00:00 16,2 10,0 13 7 25 14 ZW 1015,9 10
11.08.2019 21:00:00 17,7 10,5 11 6 18 10 ZW 1015,5 10
11.08.2019 20:00:00 18,3 10,0 13 7 - - WZW 1014,9 10
11.08.2019 19:00:00 19,2 10,3 15 8 25 14 ZW 1014,3 10
11.08.2019 18:00:00 19,3 10,5 16 9 32 18 ZZW 1014,4 10
11.08.2019 17:00:00 18,9 10,6 18 10 - - ZW 1014,8 10
11.08.2019 16:00:00 18,4 11,0 21 11 29 16 ZW 1015,3 10
11.08.2019 15:00:00 18,5 10,7 22 12 29 16 ZW 1015,2 10

tt = temperatuur
td = dauwpunt
ff = windsnelheid
fx = windstoten
dd = windrichting
ppp = luchtdruk
vv = zicht

Weerstations in de omgeving